カタログに戻る

ARIANE 2 DEB

運用中HEO
NORAD 27626·DEBRIS·🇫🇷 France

打ち上げ Oct 28, 1988 から Guiana Space Centre

Loading…

次のパス (今後24時間)

TLE

最新Source: Space-Track

元期: Sep 14, 2026, 14:07 UTC

1 27626U 88098J   26257.58862106 -.00000055  00000-0  00000-0 0  9995
2 27626   4.2706 314.3511 6394412 128.1185 210.7141  2.76073748269802

AllMySatでARIANE 2 DEBをリアルタイム追跡

Download on the App Store